TimeMST,TemperatureF,Dew PointF,Humidity,Sea Level PressureIn,VisibilityMPH,Wind Direction,Wind SpeedMPH,Gust SpeedMPH,PrecipitationIn,Events,Conditions,WindDirDegrees,DateUTC
12:35 AM,21.2,8.6,58,30.19,10.0,Calm,Calm,-,N/A,,Clear,0,2013-01-04 07:35:00
12:55 AM,14.0,6.8,73,30.19,10.0,Calm,Calm,-,N/A,,Clear,0,2013-01-04 07:55:00
1:15 AM,14.0,6.8,73,30.19,10.0,Calm,Calm,-,N/A,,Clear,0,2013-01-04 08:15:00
1:35 AM,15.8,6.8,68,30.18,10.0,Calm,Calm,-,N/A,,Clear,0,2013-01-04 08:35:00
1:55 AM,17.6,6.8,63,30.18,10.0,Calm,Calm,-,N/A,,Clear,0,2013-01-04 08:55:00
2:15 AM,17.6,6.8,63,30.19,10.0,Calm,Calm,-,N/A,,Clear,0,2013-01-04 09:15:00
2:35 AM,17.6,6.8,63,30.19,10.0,Calm,Calm,-,N/A,,Clear,0,2013-01-04 09:35:00
2:55 AM,19.4,5.0,54,30.18,10.0,Calm,Calm,-,N/A,,Clear,0,2013-01-04 09:55:00
3:15 AM,21.2,6.8,54,30.18,10.0,Calm,Calm,-,N/A,,Clear,0,2013-01-04 10:15:00
3:35 AM,19.4,3.2,49,30.18,10.0,SSW,3.5,-,N/A,,Clear,210,2013-01-04 10:35:00
4:35 AM,17.6,3.2,53,30.17,10.0,Calm,Calm,-,N/A,,Clear,0,2013-01-04 11:35:00
4:55 AM,15.8,3.2,58,30.16,10.0,Calm,Calm,-,N/A,,Clear,0,2013-01-04 11:55:00
5:15 AM,17.6,6.8,63,30.16,10.0,Calm,Calm,-,N/A,,Clear,0,2013-01-04 12:15:00
5:35 AM,19.4,5.0,54,30.16,10.0,Calm,Calm,-,N/A,,Clear,0,2013-01-04 12:35:00
5:55 AM,19.4,5.0,54,30.16,10.0,Calm,Calm,-,N/A,,Clear,0,2013-01-04 12:55:00
6:15 AM,17.6,6.8,63,30.15,10.0,Calm,Calm,-,N/A,,Clear,0,2013-01-04 13:15:00
6:35 AM,15.8,1.4,53,30.15,10.0,Calm,Calm,-,N/A,,Clear,0,2013-01-04 13:35:00
6:55 AM,12.2,3.2,67,30.15,10.0,Calm,Calm,-,N/A,,Clear,0,2013-01-04 13:55:00
7:35 AM,14.0,1.4,57,30.15,10.0,Calm,Calm,-,N/A,,Clear,0,2013-01-04 14:35:00
7:55 AM,15.8,3.2,58,30.15,10.0,Calm,Calm,-,N/A,,Clear,0,2013-01-04 14:55:00
8:35 AM,17.6,6.8,63,30.15,10.0,Calm,Calm,-,N/A,,Clear,0,2013-01-04 15:35:00
8:55 AM,17.6,6.8,63,30.15,10.0,Calm,Calm,-,N/A,,Clear,0,2013-01-04 15:55:00
9:15 AM,21.2,10.4,63,30.16,10.0,Calm,Calm,-,N/A,,Clear,0,2013-01-04 16:15:00
9:35 AM,23.0,10.4,59,30.16,10.0,Calm,Calm,-,N/A,,Clear,0,2013-01-04 16:35:00
9:55 AM,24.8,12.2,59,30.16,10.0,Calm,Calm,-,N/A,,Clear,0,2013-01-04 16:55:00
10:15 AM,26.6,15.8,64,30.16,10.0,SE,3.5,-,N/A,,Clear,140,2013-01-04 17:15:00
10:55 AM,30.2,15.8,55,30.15,10.0,South,4.6,-,N/A,,Clear,170,2013-01-04 17:55:00
11:35 AM,33.8,17.6,52,30.13,10.0,SSE,3.5,-,N/A,,Clear,150,2013-01-04 18:35:00
11:55 AM,33.8,15.8,48,30.12,10.0,SSE,4.6,-,N/A,,Clear,150,2013-01-04 18:55:00
12:15 PM,37.4,17.6,45,30.11,10.0,SSE,4.6,-,N/A,,Clear,150,2013-01-04 19:15:00
12:55 PM,37.4,15.8,41,30.08,10.0,Calm,Calm,-,N/A,,Clear,0,2013-01-04 19:55:00
1:35 PM,39.2,15.8,39,30.06,10.0,Calm,Calm,-,N/A,,Clear,0,2013-01-04 20:35:00
1:55 PM,39.2,15.8,39,30.05,10.0,Calm,Calm,-,N/A,,Clear,0,2013-01-04 20:55:00
2:15 PM,39.2,15.8,39,30.04,10.0,Calm,Calm,-,N/A,,Clear,0,2013-01-04 21:15:00
2:35 PM,44.6,12.2,27,30.04,10.0,Calm,Calm,-,N/A,,Clear,0,2013-01-04 21:35:00
2:55 PM,41.0,12.2,31,30.04,10.0,Calm,Calm,-,N/A,,Clear,0,2013-01-04 21:55:00
3:15 PM,41.0,15.8,36,30.04,10.0,Calm,Calm,-,N/A,,Clear,0,2013-01-04 22:15:00
3:35 PM,44.6,15.8,31,30.03,10.0,Calm,Calm,-,N/A,,Clear,0,2013-01-04 22:35:00
3:55 PM,39.2,14.0,36,30.03,10.0,Calm,Calm,-,N/A,,Clear,0,2013-01-04 22:55:00
4:15 PM,39.2,14.0,36,30.03,10.0,NE,3.5,-,N/A,,Clear,40,2013-01-04 23:15:00
4:55 PM,37.4,15.8,41,30.02,10.0,NNE,4.6,-,N/A,,Clear,30,2013-01-04 23:55:00
5:15 PM,35.6,15.8,44,30.02,10.0,North,3.5,-,N/A,,Clear,10,2013-01-05 00:15:00
5:35 PM,35.6,15.8,44,30.03,10.0,Calm,Calm,-,N/A,,Clear,0,2013-01-05 00:35:00
5:55 PM,35.6,12.2,38,30.03,10.0,Calm,Calm,-,N/A,,Clear,0,2013-01-05 00:55:00
6:15 PM,30.2,12.2,47,30.03,10.0,Calm,Calm,-,N/A,,Clear,0,2013-01-05 01:15:00
6:35 PM,30.2,15.8,55,30.04,10.0,Calm,Calm,-,N/A,,Clear,0,2013-01-05 01:35:00
6:55 PM,32.0,15.8,51,30.04,10.0,Calm,Calm,-,N/A,,Clear,0,2013-01-05 01:55:00
7:15 PM,30.2,14.0,51,30.04,10.0,Calm,Calm,-,N/A,,Clear,0,2013-01-05 02:15:00
7:35 PM,28.4,12.2,51,30.04,10.0,Calm,Calm,-,N/A,,Clear,0,2013-01-05 02:35:00
7:55 PM,24.8,12.2,59,30.04,10.0,Calm,Calm,-,N/A,,Clear,0,2013-01-05 02:55:00
8:15 PM,28.4,12.2,51,30.04,10.0,North,4.6,-,N/A,,Clear,10,2013-01-05 03:15:00
8:35 PM,26.6,10.4,51,30.04,10.0,NNE,3.5,-,N/A,,Clear,20,2013-01-05 03:35:00
8:55 PM,26.6,12.2,55,30.05,10.0,Calm,Calm,-,N/A,,Clear,0,2013-01-05 03:55:00
9:15 PM,24.8,8.6,50,30.06,10.0,Calm,Calm,-,N/A,,Clear,0,2013-01-05 04:15:00
9:35 PM,19.4,6.8,58,30.06,10.0,Calm,Calm,-,N/A,,Clear,0,2013-01-05 04:35:00
9:55 PM,19.4,10.4,68,30.06,10.0,WNW,4.6,-,N/A,,Clear,300,2013-01-05 04:55:00
10:15 PM,21.2,12.2,68,30.06,10.0,Calm,Calm,-,N/A,,Clear,0,2013-01-05 05:15:00
10:35 PM,21.2,10.4,63,30.06,10.0,Calm,Calm,-,N/A,,Clear,0,2013-01-05 05:35:00
10:55 PM,21.2,10.4,63,30.07,10.0,Calm,Calm,-,N/A,,Clear,0,2013-01-05 05:55:00
11:15 PM,24.8,10.4,54,30.06,10.0,Calm,Calm,-,N/A,,Clear,0,2013-01-05 06:15:00
11:35 PM,23.0,8.6,54,30.06,10.0,North,8.1,-,N/A,,Clear,10,2013-01-05 06:35:00
11:55 PM,19.4,10.4,68,30.06,10.0,Calm,Calm,-,N/A,,Clear,0,2013-01-05 06:55:00